DECAYED

STARLINK-30199, 57299 (Decayed)

Orbit data source: Space-Track

STARLINK-30199, 57299 was a payload satellite owned by SpaceX/Seattle (US) in LEO that was launched on Mon, 10 Jul 2023 UTC via an FALCON 9 launch vehicle from the Air Force Eastern Test Range (AFETR). Payload-class satellites include a variety of spacecraft equipped with specific instruments for various scientific and technological missions. These include communications satellites like Starlink; space stations such as the ISS; scientific satellites like the Hubble; Earth observation satellites from companies like Planet Labs, Umbra, and HawkEye 360; GPS; miniature CubeSats for education and research; and military/defense satellites.

Not visible in the next 10 days
Identifier
57299, 2023-096K
Orbit
Decayed
Country
Flag of USUS
Related business
Manufacturer
SpaceX/Seattle
Mission
Decayed Commercial Communications
Bus & Motor
STARLINK V2M, Unknown motor
Mass
730 kg wet, ~700 kg dry
Launch date (UTC)
2023-07-10 (2 years ago)
Launch vehicle
FALCON 9
Launch site
Air Force Eastern Test Range (AFETR)
Object type
Payload
Rocket body
Debris
Shape & HBR
Box + 2 Pan, 17.7 m
Radar Cross Section
33.884 m², Large (>1 m²)

Expand to show TLE details & history
Last TLE update: 4 months ago

TLE from 4 months ago
0 STARLINK-30199
1 57299U 23096K   25222.43687554  .09299294  90244-5  20926-2 0  9996
2 57299  42.9682 233.3802 0005398 126.5634  25.9089 16.29169021115511
Epoch: 2025-08-10T10:29Z
TLE epoch observation values (Epoch: 2025-08-10T10:29:06.046Z)
Latitude
18.40001°
Longitude
-83.8514°
Altitude
190.784 km
Speed
7.797 km/s
True Right ascension
02h 10m 19s
True Declination
18° 17' 18"
Sunlit
Object was in daylight at epoch
Visualization orbit readout
Latitude
Unknown
Longitude
Unknown
Altitude
Unknown
Speed
Unknown
Apparent Right ascension
Unknown
Apparent Declination
Unknown
Sunlit
N/A
Visualization observer readout
Local Sidereal Time
12:22:41
Azimuth
Unknown
Elevation
Unknown
Doppler factor
Unknown
Orbital elements
Apogee altitude
200.359 km
Perigee altitude
193.26 km
Semi-major axis
6,574.947 km
Eccentricity
0.00054
Inclination
42.9682°
RAAN
233.3802°
Arg. of periapsis
126.5634°
True anomaly
25.93594°
Mean anomaly
25.9089°
Eccentric anomaly
25.92242°
Mean motion
4.07103 °/min
Orbital period
88.43 mins
BSTAR
0.0020926
Loading maneuver chart data...
Computing Atmospheric mass density...
Loading historical data...
Loading historical data...
Loading historical data...
Loading historical data...
Loading historical data...
Loading historical data...
Loading historical data...

Documentation

Showing up to 5 results
|